TimeEDT,TemperatureF,Dew PointF,Humidity,Sea Level PressureIn,VisibilityMPH,Wind Direction,Wind SpeedMPH,Gust SpeedMPH,PrecipitationIn,Events,Conditions,WindDirDegrees,DateUTC
12:02 AM,35.1,34.0,96,29.55,10.0,WSW,4.6,-,N/A,,Overcast,240,2014-04-09 04:02:00
12:31 AM,35.1,34.0,96,29.55,10.0,WSW,6.9,-,N/A,,Overcast,250,2014-04-09 04:31:00
12:42 AM,35.1,34.0,96,29.56,10.0,WSW,6.9,-,N/A,,Overcast,250,2014-04-09 04:42:00
12:51 AM,35.1,34.0,96,29.59,10.0,WSW,4.6,-,N/A,,Overcast,250,2014-04-09 04:51:00
1:04 AM,35.1,34.0,96,29.56,10.0,WSW,6.9,-,N/A,,Overcast,240,2014-04-09 05:04:00
1:30 AM,36.0,34.0,93,29.57,10.0,Variable,5.8,-,N/A,,Overcast,0,2014-04-09 05:30:00
1:51 AM,36.0,34.0,93,29.60,10.0,Variable,5.8,-,N/A,,Overcast,0,2014-04-09 05:51:00
2:51 AM,35.1,33.1,92,29.61,10.0,Variable,6.9,-,N/A,,Overcast,0,2014-04-09 06:51:00
3:51 AM,33.1,32.0,96,29.61,9.0,NW,4.6,-,N/A,,Overcast,310,2014-04-09 07:51:00
4:51 AM,32.0,30.9,96,29.62,10.0,Variable,6.9,-,N/A,,Overcast,0,2014-04-09 08:51:00
5:51 AM,30.9,30.0,96,29.64,10.0,Variable,3.5,-,N/A,,Overcast,0,2014-04-09 09:51:00
6:24 AM,30.9,28.0,89,29.60,10.0,NW,5.8,-,N/A,,Overcast,320,2014-04-09 10:24:00
6:51 AM,30.9,27.0,85,29.67,10.0,Variable,4.6,-,N/A,,Overcast,0,2014-04-09 10:51:00
7:42 AM,30.0,25.0,82,29.64,10.0,NW,10.4,20.7,N/A,,Overcast,320,2014-04-09 11:42:00
7:51 AM,30.0,24.1,79,29.70,10.0,WNW,8.1,20.7,N/A,,Overcast,290,2014-04-09 11:51:00
8:51 AM,28.9,23.0,78,29.73,10.0,WNW,9.2,16.1,N/A,,Overcast,300,2014-04-09 12:51:00
9:51 AM,30.0,21.9,72,29.75,10.0,WNW,6.9,-,N/A,,Mostly Cloudy,290,2014-04-09 13:51:00
10:20 AM,32.0,19.9,61,29.72,10.0,Variable,3.5,-,N/A,,Scattered Clouds,0,2014-04-09 14:20:00
10:51 AM,33.1,18.0,54,29.77,10.0,Variable,6.9,17.3,N/A,,Partly Cloudy,0,2014-04-09 14:51:00
11:51 AM,35.1,15.1,44,29.77,10.0,West,9.2,18.4,0.00,,Scattered Clouds,280,2014-04-09 15:51:00
12:51 PM,34.0,10.0,37,29.77,10.0,NW,11.5,23.0,N/A,,Clear,320,2014-04-09 16:51:00
1:51 PM,34.0,7.0,32,29.79,10.0,West,12.7,20.7,N/A,,Clear,260,2014-04-09 17:51:00
2:51 PM,35.1,6.1,30,29.81,10.0,NNW,13.8,26.5,N/A,,Clear,330,2014-04-09 18:51:00
3:51 PM,35.1,10.0,35,29.82,10.0,WNW,10.4,23.0,N/A,,Clear,290,2014-04-09 19:51:00
4:51 PM,35.1,9.0,34,29.83,10.0,West,9.2,20.7,N/A,,Clear,280,2014-04-09 20:51:00
6:51 PM,34.0,12.0,40,29.86,10.0,West,8.1,-,N/A,,Clear,280,2014-04-09 22:51:00
7:51 PM,32.0,14.0,48,29.88,10.0,West,3.5,-,N/A,,Clear,260,2014-04-09 23:51:00
8:51 PM,28.0,16.0,61,29.91,10.0,WSW,3.5,-,N/A,,Clear,250,2014-04-10 00:51:00
9:51 PM,28.0,16.0,61,29.93,10.0,WSW,3.5,-,N/A,,Clear,240,2014-04-10 01:51:00
10:51 PM,24.1,18.0,77,29.94,10.0,Calm,Calm,-,N/A,,Clear,0,2014-04-10 02:51:00
11:51 PM,23.0,19.0,85,29.94,10.0,Calm,Calm,-,N/A,,Clear,0,2014-04-10 03:51:00